Tiempo cada hora Barrancas

Hoy, 25 Febrero, Jueves

Tiempo Temperatura Precipitaciones Viento Presión Humedad
00:00 +26°C° 0.1 mm 2 mps 745 mmHg 88%
01:00 +26°C° 0.1 mm 2 mps 745 mmHg 88%
02:00 +26°C° 0.1 mm 2 mps 744 mmHg 89%
03:00 +25°C° 0.1 mm 1 mps 744 mmHg 90%
04:00 +25°C° 0.1 mm 1 mps 744 mmHg 92%
05:00 +25°C° 0.1 mm 1 mps 744 mmHg 90%
06:00 +26°C° 0.1 mm 1 mps 745 mmHg 89%
07:00 +26°C° 0.1 mm 1 mps 745 mmHg 87%
08:00 +28°C° 0 mm 2 mps 745 mmHg 78%
09:00 +29°C° 0 mm 2 mps 746 mmHg 69%
10:00 +31°C° 0 mm 3 mps 746 mmHg 61%
11:00 +33°C° 0 mm 3 mps 745 mmHg 58%
12:00 +34°C° 0 mm 3 mps 744 mmHg 55%
13:00 +34°C° 0 mm 4 mps 744 mmHg 53%
14:00 +34°C° 0 mm 4 mps 743 mmHg 55%
15:00 +34°C° 0 mm 4 mps 743 mmHg 57%
16:00 +33°C° 0 mm 4 mps 742 mmHg 58%
17:00 +30°C° 0.1 mm 3 mps 743 mmHg 66%
18:00 +29°C° 0.1 mm 3 mps 743 mmHg 74%
19:00 +27°C° 0.1 mm 2 mps 743 mmHg 82%
20:00 +27°C° 0.2 mm 2 mps 744 mmHg 84%
21:00 +27°C° 0.2 mm 2 mps 744 mmHg 86%
22:00 +26°C° 0.2 mm 2 mps 744 mmHg 89%
23:00 +26°C° 0.3 mm 2 mps 744 mmHg 89%

Mañana, 26 Febrero, Viernes

Tiempo Temperatura Precipitaciones Viento Presión Humedad
00:00 +26°C° 0.3 mm 2 mps 744 mmHg 90%
01:00 +26°C° 0.3 mm 2 mps 744 mmHg 90%
02:00 +26°C° 0 mm 2 mps 743 mmHg 92%
03:00 +25°C° 0 mm 2 mps 743 mmHg 93%
04:00 +25°C° 0 mm 1 mps 743 mmHg 94%
05:00 +25°C° 0 mm 1 mps 743 mmHg 92%
06:00 +25°C° 0 mm 2 mps 744 mmHg 90%
07:00 +25°C° 0 mm 2 mps 744 mmHg 89%
08:00 +27°C° 0 mm 2 mps 744 mmHg 81%
09:00 +28°C° 0 mm 2 mps 745 mmHg 74%
10:00 +30°C° 0 mm 3 mps 745 mmHg 66%
11:00 +31°C° 0.1 mm 3 mps 744 mmHg 63%
12:00 +31°C° 0.1 mm 3 mps 744 mmHg 61%
13:00 +33°C° 0.1 mm 4 mps 743 mmHg 58%
14:00 +33°C° 0 mm 4 mps 743 mmHg 59%
15:00 +32°C° 0 mm 4 mps 742 mmHg 59%
16:00 +32°C° 0 mm 4 mps 742 mmHg 60%
17:00 +30°C° 0 mm 3 mps 742 mmHg 65%
18:00 +28°C° 0 mm 3 mps 742 mmHg 71%
19:00 +27°C° 0 mm 2 mps 743 mmHg 77%
20:00 +26°C° 0 mm 2 mps 743 mmHg 78%
21:00 +26°C° 0 mm 2 mps 744 mmHg 79%
22:00 +26°C° 0 mm 2 mps 744 mmHg 79%
23:00 +26°C° 0.1 mm 2 mps 744 mmHg 81%

Pasado mañana, 27 Febrero, Sábado

Tiempo Temperatura Precipitaciones Viento Presión Humedad
00:00 +26°C° 0.1 mm 2 mps 744 mmHg 83%
01:00 +25°C° 0.1 mm 2 mps 744 mmHg 85%
02:00 +25°C° 0.1 mm 2 mps 744 mmHg 87%
03:00 +25°C° 0.1 mm 2 mps 744 mmHg 88%
04:00 +24°C° 0.1 mm 2 mps 744 mmHg 90%
05:00 +24°C° 0.1 mm 2 mps 744 mmHg 89%
06:00 +25°C° 0.1 mm 2 mps 745 mmHg 88%
07:00 +25°C° 0.1 mm 2 mps 745 mmHg 87%
08:00 +26°C° 0.1 mm 2 mps 745 mmHg 79%
09:00 +28°C° 0.1 mm 3 mps 745 mmHg 71%
10:00 +30°C° 0.1 mm 3 mps 746 mmHg 64%
11:00 +31°C° 0 mm 3 mps 745 mmHg 58%
12:00 +33°C° 0 mm 4 mps 744 mmHg 53%
13:00 +35°C° 0 mm 4 mps 743 mmHg 48%
14:00 +34°C° 0 mm 4 mps 743 mmHg 49%
15:00 +34°C° 0 mm 4 mps 742 mmHg 49%
16:00 +34°C° 0 mm 4 mps 742 mmHg 50%
17:00 +32°C° 0 mm 4 mps 742 mmHg 59%
18:00 +29°C° 0 mm 3 mps 742 mmHg 67%
19:00 +26°C° 0 mm 3 mps 743 mmHg 76%
20:00 +26°C° 0 mm 2 mps 743 mmHg 78%
21:00 +25°C° 0 mm 2 mps 744 mmHg 81%
22:00 +24°C° 0 mm 1 mps 744 mmHg 83%
23:00 +24°C° 0 mm 1 mps 744 mmHg 84%

28 Febrero, Domingo

Tiempo Temperatura Precipitaciones Viento Presión Humedad
00:00 +24°C° 0 mm 1 mps 744 mmHg 84%
01:00 +24°C° 0 mm 2 mps 744 mmHg 85%
02:00 +24°C° 0 mm 1 mps 744 mmHg 87%
03:00 +23°C° 0 mm 1 mps 743 mmHg 89%
04:00 +23°C° 0 mm 1 mps 743 mmHg 91%
05:00 +23°C° 0 mm 1 mps 744 mmHg 89%
06:00 +24°C° 0 mm 1 mps 744 mmHg 86%
07:00 +24°C° 0 mm 1 mps 745 mmHg 83%
08:00 +26°C° 0 mm 2 mps 745 mmHg 74%
09:00 +29°C° 0 mm 3 mps 745 mmHg 64%
10:00 +31°C° 0 mm 3 mps 745 mmHg 54%
11:00 +33°C° 0 mm 4 mps 745 mmHg 50%
12:00 +34°C° 0 mm 4 mps 744 mmHg 46%
13:00 +35°C° 0 mm 5 mps 743 mmHg 43%
14:00 +35°C° 0 mm 5 mps 743 mmHg 44%
15:00 +34°C° 0 mm 5 mps 742 mmHg 46%
16:00 +34°C° 0 mm 5 mps 741 mmHg 48%
17:00 +32°C° 0 mm 4 mps 742 mmHg 57%
18:00 +28°C° 0 mm 3 mps 742 mmHg 66%
19:00 +26°C° 0 mm 2 mps 743 mmHg 75%
20:00 +26°C° 0 mm 2 mps 743 mmHg 77%
21:00 +26°C° 0 mm 2 mps 744 mmHg 79%
22:00 +25°C° 0 mm 1 mps 744 mmHg 82%
23:00 +25°C° 0.1 mm 1 mps 744 mmHg 82%

1 Marzo, Lunes

Tiempo Temperatura Precipitaciones Viento Presión Humedad
00:00 +25°C° 0.1 mm 2 mps 744 mmHg 83%
01:00 +25°C° 0.1 mm 2 mps 744 mmHg 84%
02:00 +24°C° 0.1 mm 2 mps 744 mmHg 86%
03:00 +24°C° 0.1 mm 1 mps 743 mmHg 88%
04:00 +23°C° 0.1 mm 1 mps 743 mmHg 91%
05:00 +24°C° 0 mm 1 mps 744 mmHg 89%
06:00 +24°C° 0 mm 1 mps 744 mmHg 87%
07:00 +24°C° 0 mm 1 mps 745 mmHg 85%
08:00 +27°C° 0 mm 2 mps 745 mmHg 71%
09:00 +29°C° 0 mm 3 mps 745 mmHg 57%
10:00 +33°C° 0 mm 3 mps 746 mmHg 43%
11:00 +34°C° 0 mm 4 mps 745 mmHg 41%
12:00 +35°C° 0 mm 4 mps 744 mmHg 38%
13:00 +36°C° 0 mm 5 mps 743 mmHg 36%
14:00 +35°C° 0 mm 5 mps 742 mmHg 39%
15:00 +34°C° 0 mm 5 mps 742 mmHg 43%
16:00 +34°C° 0 mm 4 mps 741 mmHg 46%
17:00 +32°C° 0 mm 4 mps 742 mmHg 56%
18:00 +28°C° 0 mm 3 mps 742 mmHg 66%
19:00 +26°C° 0 mm 2 mps 743 mmHg 76%
20:00 +26°C° 0 mm 2 mps 743 mmHg 80%
21:00 +25°C° 0 mm 2 mps 744 mmHg 84%
22:00 +25°C° 0 mm 1 mps 744 mmHg 87%
23:00 +25°C° 0 mm 2 mps 744 mmHg 86%

2 Marzo, Martes

Tiempo Temperatura Precipitaciones Viento Presión Humedad
00:00 +25°C° 0 mm 2 mps 744 mmHg 86%
01:00 +25°C° 0 mm 2 mps 744 mmHg 85%
02:00 +25°C° 0 mm 2 mps 744 mmHg 87%
03:00 +24°C° 0 mm 2 mps 744 mmHg 89%
04:00 +23°C° 0 mm 1 mps 743 mmHg 91%
05:00 +23°C° 0 mm 1 mps 744 mmHg 88%
06:00 +24°C° 0 mm 1 mps 744 mmHg 86%
07:00 +24°C° 0 mm 1 mps 745 mmHg 83%
08:00 +26°C° 0 mm 2 mps 745 mmHg 70%
09:00 +29°C° 0 mm 2 mps 746 mmHg 57%
10:00 +33°C° 0 mm 3 mps 746 mmHg 44%
11:00 +34°C° 0 mm 3 mps 745 mmHg 39%
12:00 +35°C° 0 mm 4 mps 745 mmHg 34%
13:00 +36°C° 0 mm 4 mps 744 mmHg 29%
14:00 +36°C° 0 mm 4 mps 743 mmHg 28%
15:00 +35°C° 0 mm 4 mps 743 mmHg 28%
16:00 +34°C° 0 mm 4 mps 742 mmHg 28%
17:00 +30°C° 0 mm 3 mps 743 mmHg 37%
18:00 +27°C° 0 mm 2 mps 743 mmHg 46%
19:00 +25°C° 0 mm 2 mps 744 mmHg 55%
20:00 +24°C° 0 mm 1 mps 744 mmHg 62%
21:00 +24°C° 0 mm 1 mps 745 mmHg 70%
22:00 +23°C° 0 mm 1 mps 745 mmHg 77%
23:00 +23°C° 0 mm 1 mps 745 mmHg 80%
Mostrar más

Necesitamos Su Consentimiento

Meteoprog y nuestros Proveedores de Servicios pueden almacenar y acceder a sus datos personales como cookies, identificadores de dispositivo u otras tecnologías similares de su dispositivo y procesar dichos datos para personalizar contenido y anuncios, además de ofrecer funciones de redes sociales y analizar el tráfico.

  • Almacenar y/o acceder a información en su dispositivo

    Se puede almacenar o acceder a cookies, identificadores de dispositivo u otra información de su dispositivo para los fines anteriormente indicados.

  • Anuncios y contenido personalizados, medición de anuncios y contenido, percepciones del público, y desarrollo de productos

    Los anuncios y el contenido pueden personalizarse en base a su perfil. Se pueden añadir más datos para personalizar mejor los anuncios y contenidos. Se puede medir el rendimiento de los anuncios y contenidos. Se puede obtener la percepción sobre el público que ha visto los anuncios y contenidos. Dichos datos pueden usarse para desarrollar o mejorar la experiencia del usuario, sistemas y software.

Al hacer clic en ‘Estoy De Acuerdo’ usted permitirá el uso de las cookies, identificadores de dispositivo, balizas web u otras tecnologías similares indicadas. Su configuración puede cambiarse desde el navegador de su dispositivo.

Para ciertos fines, los intereses legítimos pueden ser considerados por encima del consentimiento. Puede leer más sobre ello en nuestra Política de Privacidad y Cookies.